[[{"header":{"parameterUnit":"m.s-1","parameterCategory":2,"la1":30.2991,"la2":30.254,"lo1":-89.0895,"lo2":-89.0444,"dy":0.0017,"dx":0.0017,"nx":28,"ny":28,"refTime":"2025-03-28T09:00:00:Z","depth":"0","parameterNumber":2,"parameterNumberName":"U-component_of_CURRENTS"},"data":[0,0,0,0,0,0,0,0,0,0,0,0,0,0,0,0,0,0,0,0,0,0,0,0,0,0,0,0,0,0,0,0,0,0,0,0,0,0,0,0,0,0,0,0,0,0,0,0,0,0,0,0,0,0,0,0,0,0,-0.2151,-0.215,0,-0.2097,-0.2096,-0.2095,-0.2079,-0.2079,-0.208,-0.208,-0.195,-0.1946,-0.1942,0,0,0,0,0,0,0,0,0,0,0,0,0,-0.214,-0.2141,-0.2151,-0.215,-0.215,-0.2097,-0.2096,-0.2095,-0.2079,-0.2079,-0.208,-0.2081,-0.1951,-0.1946,-0.1942,0,0,0,0,0,0,0,0,0,0,0,0,0,-0.2119,-0.2141,-0.2151,-0.2138,-0.2136,-0.2097,-0.2096,-0.2095,-0.2079,-0.2079,-0.208,-0.2081,-0.1953,-0.1947,-0.1941,-0.1887,0,0,-0.1923,-0.192,0,0,0,0,0,0,0,0,-0.212,-0.2119,-0.214,-0.2139,-0.2137,-0.2098,-0.2045,-0.2023,-0.2078,-0.2097,-0.208,-0.2081,-0.1994,-0.1985,-0.1969,-0.1881,-0.1875,-0.1922,-0.1918,-0.1916,-0.1914,0,0,0,0,0,0,0,-0.2122,-0.212,-0.2126,-0.214,-0.2138,-0.2101,-0.21,-0.204,-0.2037,-0.2095,-0.2095,-0.2094,-0.1992,-0.1975,-0.1966,-0.1873,-0.1922,-0.1917,-0.1913,-0.1911,-0.179,-0.179,0,0,0,0,0,0,-0.2139,-0.2122,-0.2128,-0.2125,-0.2134,-0.2101,-0.2099,-0.2107,-0.204,-0.2032,-0.2093,-0.2093,-0.1985,-0.1973,-0.1961,-0.1924,-0.1916,-0.191,-0.1907,-0.179,-0.179,-0.1791,0,0,0,0,0,0,-0.2139,-0.2141,-0.213,-0.2124,-0.2121,-0.2102,-0.211,-0.2106,-0.2097,-0.204,-0.203,-0.209,-0.1985,-0.1969,-0.1926,-0.1917,-0.1908,-0.1902,-0.1789,-0.179,-0.179,-0.1829,0,0,0,0,0,0,-0.2139,-0.2141,-0.2146,-0.2126,-0.2122,-0.2118,-0.2109,-0.2104,-0.2096,-0.2096,-0.2033,-0.2021,-0.1984,-0.1935,-0.192,-0.1909,-0.1897,-0.1789,-0.1789,-0.179,-0.1827,-0.1831,-0.1834,0,0,0,0,0,-0.2139,-0.2149,-0.2147,-0.2147,-0.2132,-0.2119,-0.2113,-0.2099,-0.2095,-0.2093,-0.2057,-0.2024,-0.193,-0.193,-0.1912,-0.1899,-0.1788,-0.1789,-0.179,-0.1826,-0.183,-0.1834,0,0,0,0,0,0,-0.214,-0.2148,-0.2145,-0.2155,-0.2143,-0.2118,-0.2113,-0.2102,-0.2071,-0.2068,-0.2018,-0.2004,-0.1966,-0.193,-0.1932,-0.1871,-0.1857,-0.1854,-0.189,-0.1893,-0.1897,-0.1907,-0.1892,0,0,0,0,0,-0.2145,-0.2156,-0.2151,-0.2154,-0.2155,-0.2133,-0.2124,-0.2115,-0.2089,-0.2077,-0.2033,-0.1991,-0.1952,-0.1923,-0.1883,-0.1836,-0.184,-0.1821,-0.1825,-0.1827,-0.1826,-0.1833,-0.1838,-0.1793,-0.1793,-0.1793,0,0,-0.214,-0.2149,-0.2151,-0.2155,-0.2144,-0.2138,-0.2129,-0.2121,-0.2107,-0.2063,-0.2027,-0.1997,-0.1946,-0.1907,-0.1886,-0.1874,-0.1849,-0.1829,-0.1831,-0.1828,-0.1835,-0.1839,-0.1843,-0.1794,-0.1794,-0.1794,0,0,-0.2139,-0.2152,-0.216,-0.2159,-0.2155,-0.2142,-0.2145,-0.2123,-0.2109,-0.2072,-0.2047,-0.2019,-0.1944,-0.1916,-0.189,-0.1884,-0.1872,-0.1872,-0.1883,-0.189,-0.1894,-0.1897,-0.1941,-0.1947,-0.1867,-0.1867,-0.1867,0,-0.2133,-0.2145,-0.2155,-0.2163,-0.2159,-0.2148,-0.2145,-0.2127,-0.209,-0.2081,-0.2068,-0.1996,-0.1949,-0.1913,-0.1913,-0.1889,-0.1908,-0.187,-0.1895,-0.1898,-0.1901,-0.1944,-0.1951,-0.1869,-0.1868,-0.1868,-0.1868,0,-0.2135,-0.2144,-0.2149,-0.2157,-0.2155,-0.215,-0.2139,-0.213,-0.2111,-0.2092,-0.2061,-0.201,-0.1974,-0.1953,-0.1921,-0.1915,-0.193,-0.1906,-0.1887,-0.1908,-0.1953,-0.1959,-0.1871,-0.1871,-0.187,-0.187,0,0,-0.2115,-0.2144,-0.2144,-0.2151,-0.2153,-0.2151,-0.2142,-0.2131,-0.2143,-0.2094,-0.2101,-0.2022,-0.2013,-0.1984,-0.1951,-0.1942,-0.1979,-0.1931,-0.193,-0.1978,-0.2031,-0.21,-0.2114,-0.1962,-0.1963,-0.1963,-0.2067,0,-0.2105,-0.2121,-0.2137,-0.2138,-0.2143,-0.2148,-0.2147,-0.2141,-0.2137,-0.2146,-0.2097,-0.2084,-0.202,-0.2016,-0.1995,-0.1988,-0.1993,-0.1955,-0.1999,-0.2001,-0.2062,-0.2122,-0.1958,-0.204,-0.2073,-0.2074,-0.2075,0,-0.2097,-0.211,-0.2114,-0.2144,-0.215,-0.2149,-0.2172,-0.217,-0.2185,-0.2189,-0.2173,-0.2158,-0.2132,-0.2084,-0.207,-0.2054,-0.2043,-0.2033,-0.2037,-0.2088,-0.2081,-0.2017,-0.2051,-0.2009,-0.2085,-0.2084,-0.2083,0,-0.2073,-0.2096,-0.21,-0.2105,-0.2133,-0.214,-0.2151,-0.2176,-0.2202,-0.2223,-0.2269,-0.2226,-0.2242,-0.2196,-0.2174,-0.2127,-0.2194,-0.2127,-0.2182,-0.2188,-0.205,-0.2043,-0.2045,-0.2126,-0.2126,-0.2126,-0.2125,0,-0.2056,-0.206,-0.2091,-0.2091,-0.2109,-0.2132,-0.2168,-0.2185,-0.2242,-0.2306,-0.2289,-0.235,-0.2272,-0.2302,-0.2237,-0.2263,-0.2247,-0.2209,-0.2221,-0.2065,-0.2059,-0.2017,-0.2007,-0.213,-0.2129,-0.2128,-0.2127,0,-0.2022,-0.2044,-0.2053,-0.2084,-0.2096,-0.2105,-0.2176,-0.2226,-0.228,-0.2375,-0.2391,-0.2459,-0.2508,-0.2464,-0.244,-0.2384,-0.2327,-0.2379,-0.223,-0.2224,-0.222,-0.2219,-0.2256,-0.2206,-0.2446,-0.2448,-0.245,0,-0.2001,-0.2,-0.2038,-0.2059,-0.2069,-0.2102,-0.2149,-0.2215,-0.229,-0.2452,-0.2515,-0.2611,-0.2656,-0.2684,-0.2599,-0.2543,-0.2449,-0.2388,-0.2252,-0.2233,-0.2237,-0.2212,-0.2162,-0.2087,-0.2086,-0.2085,-0.2084,0,-0.1947,-0.1964,-0.1976,-0.2018,-0.2061,-0.2121,-0.2197,-0.2259,-0.2381,-0.2469,-0.2612,-0.2659,-0.2741,-0.2626,-0.2604,-0.2529,-0.2305,-0.2374,-0.2346,-0.1975,-0.1946,-0.1897,-0.2048,-0.2076,-0.2076,-0.2077,-0.2078,-0.2078,-0.1898,-0.1898,-0.1922,-0.1955,-0.2027,-0.2105,-0.2118,-0.2231,-0.2314,-0.2389,-0.2547,-0.255,-0.2522,-0.2464,-0.2443,-0.2312,-0.2337,-0.2138,-0.2149,-0.2136,-0.205,-0.2243,-0.2296,-0.2298,-0.23,-0.2302,-0.2303,0,-0.1813,-0.1826,-0.1862,-0.1903,-0.1958,-0.2012,-0.2126,-0.2123,-0.2169,-0.2235,-0.2271,-0.2259,-0.2166,-0.2174,-0.2104,-0.2032,-0.193,-0.1976,-0.1813,-0.1779,-0.1913,-0.1857,-0.1825,-0.1825,-0.1825,-0.1825,-0.1825,-0.1825,-0.1764,-0.1755,-0.1773,-0.1801,-0.1842,-0.186,-0.1888,-0.1894,-0.191,-0.1857,-0.1844,-0.1882,-0.1941,-0.201,-0.1916,-0.1835,-0.1746,-0.1704,-0.1786,-0.1781,-0.1793,-0.1804,-0.1748,-0.1693,-0.1693,-0.1503,-0.1502,-0.1501]},{"header":{"parameterUnit":"m.s-1","parameterCategory":2,"la1":30.2991,"la2":30.254,"lo1":-89.0895,"lo2":-89.0444,"dy":0.0017,"dx":0.0017,"nx":28,"ny":28,"refTime":"2025-03-28T09:00:00:Z","depth":"0","parameterNumber":3,"parameterNumberName":"V-component_of_CURRENTS"},"data":[0,0,0,0,0,0,0,0,0,0,0,0,0,0,0,0,0,0,0,0,0,0,0,0,0,0,0,0,0,0,0,0,0,0,0,0,0,0,0,0,0,0,0,0,0,0,0,0,0,0,0,0,0,0,0,0,0,0,0.005,0.0051,0,0.0144,0.0145,0.0146,0.0169,0.0169,0.0169,0.0168,0.0205,0.0206,0.0207,0,0,0,0,0,0,0,0,0,0,0,0,0,-0.0072,-0.007,0.0049,0.0051,0.0052,0.0144,0.0145,0.0146,0.017,0.0169,0.0169,0.0168,0.0204,0.0206,0.0207,0,0,0,0,0,0,0,0,0,0,0,0,0,-0.0005,-0.007,0.0049,0.0077,0.008,0.0144,0.0145,0.0146,0.017,0.0169,0.0168,0.0168,0.0204,0.0206,0.0208,0.0233,0,0,0.0214,0.0215,0,0,0,0,0,0,0,0,-0.0009,-0.0001,0.0071,0.0075,0.0079,0.0146,0.0116,0.0173,0.017,0.0133,0.0168,0.0167,0.0181,0.0185,0.0202,0.0234,0.0236,0.0214,0.0215,0.0216,0.0217,0,0,0,0,0,0,0,-0.0013,-0.0004,0.0085,0.0073,0.0077,0.0097,0.0106,0.0127,0.0157,0.0137,0.0139,0.0153,0.0183,0.02,0.0203,0.0236,0.0214,0.0216,0.0217,0.0218,0.0264,0.0264,0,0,0,0,0,0,-0.0022,-0.0009,0.0082,0.0088,0.0035,0.01,0.0109,0.0123,0.0158,0.0164,0.0153,0.0154,0.0197,0.0201,0.0204,0.021,0.0216,0.0218,0.0219,0.0264,0.0264,0.0264,0,0,0,0,0,0,-0.0025,-0.0015,0.0078,0.0043,0.0057,0.0103,0.0119,0.0126,0.0143,0.0172,0.0176,0.0163,0.0197,0.0202,0.0217,0.0212,0.0219,0.0221,0.0264,0.0264,0.0264,0.0236,0,0,0,0,0,0,-0.0029,-0.0016,-0.0012,0.0043,0.0058,0.0107,0.012,0.0128,0.0153,0.0154,0.0182,0.0185,0.0197,0.0214,0.0219,0.0215,0.0222,0.0264,0.0264,0.0264,0.0237,0.0235,0.0234,0,0,0,0,0,-0.0033,-0.0021,-0.0012,-0.0001,0.0064,0.0107,0.0117,0.0146,0.0154,0.0159,0.0177,0.0184,0.0218,0.0216,0.0222,0.0218,0.0264,0.0264,0.0264,0.0238,0.0236,0.0234,0,0,0,0,0,0,-0.0067,-0.0015,-0.0005,0.0023,0.0057,0.0112,0.0127,0.0147,0.0168,0.0167,0.0189,0.0194,0.0204,0.0218,0.0215,0.0231,0.024,0.0241,0.0218,0.0217,0.0215,0.021,0.0224,0,0,0,0,0,-0.0073,-0.0055,-0.0004,0.0016,0.0034,0.0079,0.01,0.0119,0.015,0.0159,0.0179,0.0196,0.0212,0.0218,0.0235,0.0247,0.0265,0.0247,0.0246,0.0244,0.0245,0.0267,0.0268,0.0264,0.0264,0.0264,0,0,-0.0083,-0.005,-0.0041,0.0009,0.0039,0.0059,0.0089,0.0121,0.0129,0.0159,0.0173,0.0193,0.0214,0.0225,0.0231,0.0234,0.0254,0.0244,0.0243,0.0244,0.0267,0.0268,0.0268,0.0264,0.0264,0.0264,0,0,-0.009,-0.0061,-0.0051,-0.0024,0.0021,0.0047,0.0054,0.0103,0.0117,0.0137,0.0157,0.0176,0.02,0.0216,0.0226,0.0228,0.0246,0.0229,0.0216,0.0238,0.0238,0.0239,0.0261,0.0264,0.0226,0.0226,0.0226,0,-0.0107,-0.0082,-0.0042,-0.0024,-0.0005,0.0037,0.0048,0.0071,0.0115,0.0127,0.0131,0.0179,0.0196,0.0215,0.0212,0.0223,0.0239,0.022,0.0235,0.0236,0.0237,0.026,0.0263,0.0225,0.0225,0.0225,0.0225,0,-0.0109,-0.0089,-0.0078,-0.0048,-0.0026,-0.0006,0.003,0.0046,0.0066,0.0093,0.0119,0.015,0.0178,0.0184,0.0198,0.0215,0.0224,0.0231,0.0239,0.0236,0.026,0.0264,0.0223,0.0224,0.0224,0.0224,0,0,-0.0148,-0.0093,-0.0092,-0.0083,-0.0037,-0.0021,-0.0005,0.0025,0.0035,0.007,0.0089,0.012,0.0146,0.016,0.0185,0.0203,0.0224,0.0217,0.0218,0.0235,0.0273,0.0329,0.0339,0.0232,0.0232,0.0233,0.0286,0,-0.0166,-0.0145,-0.0112,-0.0104,-0.0089,-0.0051,-0.0042,-0.0013,0.0018,0.0044,0.0086,0.0111,0.0134,0.0147,0.0171,0.0216,0.0233,0.0209,0.0276,0.0278,0.0325,0.0345,0.0335,0.0386,0.029,0.029,0.0291,0,-0.0187,-0.0165,-0.0157,-0.0128,-0.012,-0.0115,-0.0091,-0.0076,-0.0026,-0.0002,0.004,0.0081,0.0126,0.0138,0.0212,0.0195,0.0229,0.0259,0.0262,0.0328,0.0342,0.0374,0.0397,0.0512,0.0297,0.0297,0.0297,0,-0.0238,-0.0205,-0.0201,-0.019,-0.0149,-0.0146,-0.0134,-0.0091,-0.0088,-0.0028,-0.0017,0.0057,0.0085,0.0145,0.0224,0.0214,0.0306,0.0299,0.038,0.0384,0.0398,0.0403,0.0538,0.034,0.034,0.034,0.034,0,-0.0269,-0.0268,-0.0227,-0.0222,-0.0234,-0.0189,-0.0199,-0.017,-0.0138,-0.0146,-0.0048,-0.0032,0.0086,0.0159,0.0223,0.0331,0.0308,0.0388,0.0407,0.0389,0.0392,0.051,0.0552,0.0342,0.0342,0.0341,0.0341,0,-0.0317,-0.029,-0.0285,-0.0252,-0.0255,-0.0262,-0.0261,-0.0278,-0.0222,-0.0228,-0.0214,-0.0099,0.0015,0.0143,0.0256,0.0329,0.0486,0.0458,0.0437,0.0454,0.0643,0.0682,0.0829,0.0866,0.0558,0.056,0.0561,0,-0.0334,-0.0332,-0.032,-0.0345,-0.0334,-0.0345,-0.0375,-0.0334,-0.0354,-0.0282,-0.03,-0.0161,-0.0072,0.0162,0.0329,0.049,0.0554,0.0571,0.0556,0.0672,0.0727,0.0754,0.0774,0.0555,0.0556,0.0557,0.0558,0,-0.0359,-0.0356,-0.0354,-0.0413,-0.0451,-0.0496,-0.0524,-0.0548,-0.0512,-0.049,-0.0433,-0.0337,-0.0063,0.0159,0.0418,0.0504,0.0654,0.06,0.0718,0.0747,0.0784,0.0821,0.0505,0.0568,0.0567,0.0566,0.0565,0.0565,-0.0381,-0.0397,-0.042,-0.0484,-0.0554,-0.0651,-0.0696,-0.0711,-0.0732,-0.0697,-0.0571,-0.0419,-0.0028,0.0359,0.0485,0.0777,0.0747,0.0837,0.0875,0.0893,0.0936,0.0656,0.0747,0.0747,0.0747,0.0747,0.0747,0,-0.0399,-0.0439,-0.0505,-0.0595,-0.0722,-0.0731,-0.0812,-0.0847,-0.0877,-0.0791,-0.0701,-0.031,0.0064,0.0432,0.0878,0.1034,0.1037,0.1114,0.1133,0.1139,0.089,0.0899,0.1029,0.1029,0.1029,0.1029,0.1029,0.1029,-0.0411,-0.0473,-0.052,-0.0733,-0.0825,-0.0971,-0.1024,-0.1032,-0.098,-0.0831,-0.0624,-0.0445,0.0132,0.0878,0.1293,0.1318,0.1418,0.1416,0.1486,0.1307,0.1283,0.126,0.1282,0.149,0.149,0.1692,0.1694,0.1696]}],[{"header":{"parameterUnit":"m.s-1","parameterCategory":2,"la1":30.2991,"la2":30.254,"lo1":-89.0895,"lo2":-89.0444,"dy":0.0017,"dx":0.0017,"nx":28,"ny":28,"refTime":"2025-03-28T09:00:00:Z","depth":"2","parameterNumber":2,"parameterNumberName":"U-component_of_CURRENTS"},"data":[0,0,0,0,0,0,0,0,0,0,0,0,0,0,0,0,0,0,0,0,0,0,0,0,0,0,0,0,0,0,0,0,0,0,0,0,0,0,0,0,0,0,0,0,0,0,0,0,0,0,0,0,0,0,0,0,0,0,-0.1921,-0.192,0,-0.1793,-0.1791,-0.1789,-0.1797,-0.1799,-0.1801,-0.1804,-0.1703,-0.1698,-0.1693,0,0,0,0,0,0,0,0,0,0,0,0,0,-0.1904,-0.1905,-0.1921,-0.192,-0.1919,-0.1793,-0.1791,-0.1788,-0.1796,-0.1799,-0.1802,-0.1805,-0.1704,-0.1698,-0.1693,0,0,0,0,0,0,0,0,0,0,0,0,0,-0.1853,-0.1906,-0.1921,-0.1911,-0.1909,-0.1793,-0.179,-0.1788,-0.1796,-0.1799,-0.1803,-0.1806,-0.1706,-0.1699,-0.1692,-0.1576,0,0,-0.1669,-0.1666,0,0,0,0,0,0,0,0,-0.1856,-0.1853,-0.1914,-0.1912,-0.191,-0.1819,-0.1748,-0.172,-0.1795,-0.1833,-0.1804,-0.1808,-0.1745,-0.1734,-0.1695,-0.1572,-0.1567,-0.1669,-0.1664,-0.1661,-0.1659,0,0,0,0,0,0,0,-0.186,-0.1857,-0.1865,-0.1912,-0.191,-0.1821,-0.182,-0.1741,-0.1768,-0.183,-0.1832,-0.1825,-0.1744,-0.1702,-0.1693,-0.1566,-0.1669,-0.1663,-0.1658,-0.1655,-0.1502,-0.1502,0,0,0,0,0,0,-0.1896,-0.1862,-0.1869,-0.1862,-0.1896,-0.182,-0.1818,-0.184,-0.1768,-0.1761,-0.1822,-0.1826,-0.1712,-0.1701,-0.1689,-0.1673,-0.1661,-0.1654,-0.165,-0.1501,-0.1502,-0.1502,0,0,0,0,0,0,-0.1897,-0.1899,-0.1874,-0.186,-0.1852,-0.182,-0.1842,-0.1836,-0.1817,-0.1762,-0.1756,-0.1814,-0.1715,-0.17,-0.1657,-0.1666,-0.1651,-0.1645,-0.1501,-0.1502,-0.1502,-0.1561,0,0,0,0,0,0,-0.1897,-0.1901,-0.1918,-0.1865,-0.1855,-0.1833,-0.1839,-0.1831,-0.1808,-0.1812,-0.1751,-0.1745,-0.1716,-0.1668,-0.165,-0.1655,-0.1639,-0.1501,-0.1501,-0.1502,-0.1559,-0.1564,-0.1568,0,0,0,0,0,-0.1898,-0.1914,-0.192,-0.192,-0.1885,-0.1833,-0.1819,-0.1801,-0.1805,-0.1796,-0.1768,-0.1748,-0.166,-0.1661,-0.164,-0.1644,-0.15,-0.1501,-0.1502,-0.1557,-0.1563,-0.1568,0,0,0,0,0,0,-0.1912,-0.1914,-0.1921,-0.1939,-0.1903,-0.1838,-0.1817,-0.18,-0.1761,-0.1762,-0.1727,-0.1717,-0.1693,-0.1649,-0.1652,-0.1605,-0.1584,-0.1581,-0.1634,-0.1639,-0.1643,-0.1654,-0.1633,0,0,0,0,0,-0.1924,-0.1943,-0.1918,-0.1928,-0.1912,-0.1861,-0.1834,-0.1816,-0.1776,-0.1763,-0.1728,-0.1692,-0.1666,-0.1643,-0.1605,-0.1547,-0.1537,-0.1544,-0.1549,-0.1553,-0.1549,-0.1535,-0.1538,-0.1504,-0.1504,-0.1504,0,0,-0.1928,-0.1933,-0.1942,-0.1931,-0.1895,-0.188,-0.1854,-0.181,-0.1809,-0.1752,-0.1736,-0.1698,-0.1658,-0.1626,-0.161,-0.1595,-0.1565,-0.1553,-0.1557,-0.1551,-0.1536,-0.1539,-0.1542,-0.1505,-0.1505,-0.1505,0,0,-0.1919,-0.1952,-0.1947,-0.1934,-0.1894,-0.1876,-0.1873,-0.1814,-0.1806,-0.1761,-0.1751,-0.1724,-0.165,-0.1642,-0.1626,-0.162,-0.1595,-0.1608,-0.1624,-0.1611,-0.1614,-0.1616,-0.1646,-0.165,-0.1603,-0.1603,-0.1603,0,-0.192,-0.1932,-0.193,-0.1921,-0.192,-0.1889,-0.1876,-0.1857,-0.1797,-0.1784,-0.1774,-0.1697,-0.1665,-0.1651,-0.1661,-0.1631,-0.1627,-0.1609,-0.1618,-0.1619,-0.162,-0.165,-0.1654,-0.1606,-0.1605,-0.1605,-0.1605,0,-0.1904,-0.1916,-0.1909,-0.192,-0.1916,-0.1894,-0.1889,-0.1875,-0.1858,-0.1831,-0.1799,-0.1747,-0.1701,-0.1698,-0.167,-0.1665,-0.1665,-0.1634,-0.1607,-0.1628,-0.1658,-0.1661,-0.161,-0.1609,-0.1608,-0.1607,0,0,-0.1901,-0.1899,-0.1901,-0.1902,-0.1916,-0.1902,-0.1924,-0.1914,-0.1914,-0.1866,-0.1856,-0.1812,-0.1765,-0.1743,-0.1709,-0.1696,-0.1715,-0.1662,-0.166,-0.1699,-0.1714,-0.1808,-0.1821,-0.1677,-0.1677,-0.1677,-0.1747,0,-0.1884,-0.1871,-0.189,-0.1896,-0.1888,-0.191,-0.1933,-0.1929,-0.1917,-0.1903,-0.1862,-0.183,-0.1792,-0.1756,-0.174,-0.1713,-0.1719,-0.1701,-0.1682,-0.1682,-0.1768,-0.1825,-0.1581,-0.163,-0.175,-0.175,-0.1751,0,-0.1866,-0.1861,-0.1849,-0.1878,-0.1879,-0.1888,-0.1922,-0.1928,-0.1929,-0.1914,-0.1881,-0.185,-0.1828,-0.1785,-0.1764,-0.1749,-0.1735,-0.1724,-0.1726,-0.1789,-0.1781,-0.1619,-0.163,-0.1755,-0.1755,-0.1754,-0.1754,0,-0.1839,-0.1848,-0.1839,-0.1849,-0.1868,-0.1871,-0.1889,-0.1907,-0.1924,-0.1905,-0.1921,-0.1873,-0.1873,-0.182,-0.1819,-0.177,-0.1824,-0.1751,-0.1838,-0.1845,-0.1622,-0.1612,-0.1747,-0.1747,-0.1747,-0.1747,-0.1746,0,-0.1816,-0.1818,-0.1815,-0.1801,-0.1803,-0.1832,-0.1835,-0.1851,-0.1884,-0.1934,-0.1902,-0.1949,-0.1879,-0.191,-0.1852,-0.1895,-0.1855,-0.1865,-0.187,-0.1645,-0.1636,-0.1715,-0.171,-0.1749,-0.1749,-0.1748,-0.1748,0,-0.1772,-0.1778,-0.1759,-0.1763,-0.1771,-0.176,-0.1813,-0.1832,-0.187,-0.1943,-0.1948,-0.2015,-0.2068,-0.2049,-0.2021,-0.1988,-0.1976,-0.2004,-0.1786,-0.1767,-0.1988,-0.1986,-0.2065,-0.2069,-0.2072,-0.2075,-0.2077,0,-0.1745,-0.172,-0.1708,-0.1707,-0.1699,-0.1705,-0.1731,-0.179,-0.1852,-0.2007,-0.2065,-0.2159,-0.2174,-0.2209,-0.2165,-0.2117,-0.2139,-0.1936,-0.1802,-0.2024,-0.2021,-0.2013,-0.2006,-0.1525,-0.1523,-0.1521,-0.1519,0,-0.1673,-0.1662,-0.1633,-0.1629,-0.1641,-0.1687,-0.1746,-0.1798,-0.1926,-0.1944,-0.2058,-0.2061,-0.2185,-0.2045,-0.2085,-0.2015,-0.191,-0.1906,-0.2152,-0.1526,-0.1532,-0.1525,-0.1531,-0.1502,-0.1504,-0.1505,-0.1506,-0.1506,-0.1613,-0.157,-0.1535,-0.1536,-0.1585,-0.1667,-0.1653,-0.1742,-0.1763,-0.1833,-0.1982,-0.1927,-0.1961,-0.1877,-0.1824,-0.1809,-0.1918,-0.1769,-0.1765,-0.1765,-0.1734,-0.175,-0.1756,-0.1759,-0.1761,-0.1764,-0.1766,0,-0.1507,-0.1477,-0.1467,-0.1463,-0.1506,-0.1577,-0.1664,-0.161,-0.156,-0.1686,-0.1682,-0.155,-0.148,-0.1557,-0.1477,-0.1486,-0.1348,-0.1445,-0.1211,-0.1231,-0.1248,-0.118,-0.106,-0.1059,-0.1057,-0.1056,0,0,-0.1442,-0.1375,-0.1363,-0.1376,-0.1412,-0.1394,-0.1413,-0.1326,-0.1334,-0.1256,-0.1246,-0.1416,-0.1471,-0.1267,-0.1222,-0.1131,-0.1158,-0.1073,-0.1627,-0.1367,-0.1381,-0.142,-0.1341,0,0,0,0,0]},{"header":{"parameterUnit":"m.s-1","parameterCategory":2,"la1":30.2991,"la2":30.254,"lo1":-89.0895,"lo2":-89.0444,"dy":0.0017,"dx":0.0017,"nx":28,"ny":28,"refTime":"2025-03-28T09:00:00:Z","depth":"2","parameterNumber":3,"parameterNumberName":"V-component_of_CURRENTS"},"data":[0,0,0,0,0,0,0,0,0,0,0,0,0,0,0,0,0,0,0,0,0,0,0,0,0,0,0,0,0,0,0,0,0,0,0,0,0,0,0,0,0,0,0,0,0,0,0,0,0,0,0,0,0,0,0,0,0,0,-0.0051,-0.0051,0,-0.0066,-0.0067,-0.0068,-0.0025,-0.0023,-0.002,-0.0018,0.0023,0.0022,0.0021,0,0,0,0,0,0,0,0,0,0,0,0,0,-0.0141,-0.0139,-0.0051,-0.0051,-0.005,-0.0066,-0.0067,-0.0068,-0.0025,-0.0023,-0.002,-0.0017,0.0023,0.0022,0.0021,0,0,0,0,0,0,0,0,0,0,0,0,0,-0.0132,-0.0139,-0.0051,-0.0024,-0.0021,-0.0066,-0.0067,-0.0069,-0.0026,-0.0022,-0.0019,-0.0016,0.0024,0.0022,0.0021,-0.0053,0,0,0.0017,0.0016,0,0,0,0,0,0,0,0,-0.0132,-0.013,-0.0028,-0.0026,-0.0022,-0.0032,-0.0083,-0.0057,-0.0027,-0.0034,-0.0018,-0.0015,0.0013,0.0013,-0.0011,-0.0051,-0.0049,0.0017,0.0016,0.0015,0.0015,0,0,0,0,0,0,0,-0.0133,-0.013,-0.0067,-0.0028,-0.0024,-0.0063,-0.0058,-0.008,-0.0034,-0.0033,-0.0027,-0.0016,0.0015,-0.001,-0.0009,-0.0048,0.0017,0.0016,0.0015,0.0014,-0.0125,-0.0127,0,0,0,0,0,0,-0.0108,-0.013,-0.0066,-0.0066,-0.006,-0.0063,-0.0058,-0.004,-0.0035,-0.0029,-0.0018,-0.0013,-0.0009,-0.0008,-0.0007,-0.0041,0.0015,0.0014,0.0013,-0.0122,-0.0125,-0.0128,0,0,0,0,0,0,-0.011,-0.0102,-0.0065,-0.0092,-0.0088,-0.0063,-0.0045,-0.0042,-0.0037,-0.0023,-0.0017,-0.0011,-0.0006,-0.0005,-0.0041,-0.004,0.0013,0.0012,-0.0118,-0.0123,-0.0127,-0.0141,0,0,0,0,0,0,-0.0112,-0.0103,-0.0095,-0.0089,-0.0085,-0.0106,-0.0047,-0.0044,-0.0032,-0.0025,-0.0016,-0.001,-0.0004,-0.004,-0.0043,-0.0041,0.0011,-0.0115,-0.012,-0.0125,-0.0137,-0.0145,-0.0152,0,0,0,0,0,-0.0116,-0.0105,-0.0095,-0.0087,-0.007,-0.0108,-0.0113,-0.009,-0.0034,-0.0067,-0.0057,-0.0009,-0.0075,-0.0045,-0.0047,-0.0045,-0.0112,-0.0119,-0.0125,-0.0133,-0.0144,-0.0152,0,0,0,0,0,0,-0.0137,-0.0099,-0.0087,-0.0064,-0.0093,-0.0097,-0.0101,-0.0086,-0.0106,-0.0079,-0.0056,-0.0055,-0.0082,-0.0085,-0.0051,-0.0109,-0.0082,-0.009,-0.0088,-0.0097,-0.0105,-0.0087,0.001,0,0,0,0,0,-0.0139,-0.0121,-0.0118,-0.0108,-0.0109,-0.0106,-0.0113,-0.0106,-0.0111,-0.0113,-0.0106,-0.0105,-0.0122,-0.0122,-0.0149,-0.0186,-0.0144,-0.0189,-0.0197,-0.0203,-0.0196,-0.0158,-0.0159,-0.0149,-0.0149,-0.0149,0,0,-0.0146,-0.012,-0.0112,-0.0113,-0.0116,-0.0156,-0.0104,-0.0115,-0.0143,-0.0108,-0.0136,-0.0135,-0.0144,-0.0185,-0.0195,-0.0175,-0.0186,-0.0211,-0.0215,-0.0205,-0.0164,-0.0164,-0.0164,-0.0154,-0.0153,-0.0152,0,0,-0.0167,-0.0126,-0.0132,-0.0164,-0.017,-0.0176,-0.0175,-0.0186,-0.0179,-0.023,-0.0196,-0.0198,-0.0241,-0.0236,-0.0238,-0.0311,-0.0232,-0.0318,-0.0328,-0.0291,-0.029,-0.0288,-0.0221,-0.0214,-0.0314,-0.0314,-0.0314,0,-0.018,-0.0186,-0.0153,-0.0189,-0.0209,-0.0183,-0.0229,-0.024,-0.0268,-0.0257,-0.0243,-0.0263,-0.0262,-0.0274,-0.0301,-0.0319,-0.0278,-0.0279,-0.0294,-0.0292,-0.0289,-0.0222,-0.0213,-0.0315,-0.0315,-0.0315,-0.0315,0,-0.0228,-0.0247,-0.0254,-0.0283,-0.031,-0.0346,-0.035,-0.0362,-0.0334,-0.0333,-0.0335,-0.0341,-0.0337,-0.0343,-0.0344,-0.0333,-0.0301,-0.0305,-0.0251,-0.029,-0.0218,-0.0208,-0.0317,-0.0317,-0.0316,-0.0316,0,0,-0.0232,-0.0278,-0.0287,-0.0327,-0.0362,-0.039,-0.0413,-0.0432,-0.0414,-0.0427,-0.0406,-0.0432,-0.0385,-0.0388,-0.0368,-0.034,-0.0286,-0.0316,-0.0314,-0.0216,-0.0175,-0.0105,-0.0087,-0.0283,-0.0282,-0.0281,-0.0123,0,-0.0291,-0.0375,-0.0375,-0.0468,-0.0516,-0.0502,-0.0527,-0.053,-0.0506,-0.0485,-0.0438,-0.0425,-0.0415,-0.039,-0.0364,-0.0306,-0.0265,-0.0327,-0.0183,-0.0178,-0.0083,-0.0076,-0.0145,-0.0007,-0.0113,-0.0111,-0.011,0,-0.0349,-0.0401,-0.0491,-0.0552,-0.0563,-0.0601,-0.0597,-0.062,-0.057,-0.0539,-0.0491,-0.0445,-0.039,-0.0382,-0.0272,-0.0308,-0.0247,-0.0201,-0.0193,-0.0113,-0.009,0.0006,0.0016,-0.0093,-0.0094,-0.0096,-0.0097,0,-0.0379,-0.0478,-0.0544,-0.058,-0.0641,-0.0646,-0.0655,-0.0626,-0.0621,-0.0548,-0.0512,-0.0442,-0.0377,-0.0311,-0.02,-0.0232,-0.0064,-0.0094,0.003,0.0037,0.0013,0.0017,-0.0022,-0.0022,-0.0022,-0.0023,-0.0023,0,-0.0441,-0.0498,-0.0562,-0.0608,-0.067,-0.068,-0.0694,-0.0679,-0.0635,-0.0621,-0.0528,-0.0481,-0.0357,-0.0246,-0.0178,-0.0015,-0.0035,0.0048,0.0083,0.0005,0.0005,-0.0054,-0.0059,-0.0017,-0.0018,-0.0019,-0.002,0,-0.0463,-0.0508,-0.0603,-0.0673,-0.0688,-0.0728,-0.0737,-0.0748,-0.0676,-0.0646,-0.0616,-0.048,-0.0311,-0.0173,-0.0021,0.0044,0.0166,0.0221,0.0146,0.017,0.0236,0.0226,0.0375,0.0379,0.0382,0.0385,0.0387,0,-0.0481,-0.0526,-0.0643,-0.0699,-0.0729,-0.0773,-0.0802,-0.0775,-0.0784,-0.0655,-0.0653,-0.0447,-0.0353,-0.0055,0.012,0.0307,0.029,0.0371,0.0285,0.0258,0.0277,0.0262,0.0249,0.0251,0.0252,0.0253,0.0254,0,-0.0516,-0.0547,-0.0631,-0.075,-0.0813,-0.0888,-0.092,-0.0933,-0.0884,-0.0821,-0.0723,-0.0623,-0.0302,-0.0093,0.0213,0.0298,0.0335,0.0396,0.0392,0.0164,0.0154,0.0169,0.0157,0.0261,0.026,0.026,0.0259,0.0259,-0.0531,-0.0612,-0.0713,-0.0832,-0.0907,-0.1004,-0.1042,-0.1047,-0.1043,-0.0933,-0.0818,-0.0625,-0.0377,0.0034,0.0227,0.0441,0.0424,0.0442,0.0433,0.0425,0.0384,0.0381,0.0525,0.0526,0.0526,0.0527,0.0527,0,-0.0591,-0.0672,-0.0786,-0.0949,-0.1049,-0.1055,-0.1128,-0.1126,-0.1109,-0.0978,-0.0847,-0.0576,-0.0316,-0.0026,0.0283,0.0453,0.0391,0.0503,0.0368,0.0361,0.0354,0.0304,0.0427,0.0427,0.0427,0.0428,0,0,-0.063,-0.0771,-0.0865,-0.1064,-0.1133,-0.1226,-0.126,-0.1201,-0.1113,-0.0981,-0.0819,-0.0612,-0.0312,-0.0097,0.0126,0.0287,0.0274,0.03,0.0356,0.0162,0.0153,0.0294,0.0207,0,0,0,0,0]}],[{"header":{"parameterUnit":"m.s-1","parameterCategory":2,"la1":30.2991,"la2":30.254,"lo1":-89.0895,"lo2":-89.0444,"dy":0.0017,"dx":0.0017,"nx":28,"ny":28,"refTime":"2025-03-28T09:00:00:Z","depth":"4","parameterNumber":2,"parameterNumberName":"U-component_of_CURRENTS"},"data":[0,0,0,0,0,0,0,0,0,0,0,0,0,0,0,0,0,0,0,0,0,0,0,0,0,0,0,0,0,0,0,0,0,0,0,0,0,0,0,0,0,0,0,0,0,0,0,0,0,0,0,0,0,0,0,0,0,0,-0.0851,-0.0851,0,-0.0909,-0.0909,-0.091,-0.0939,-0.094,-0.094,-0.094,-0.098,-0.0981,-0.0981,0,0,0,0,0,0,0,0,0,0,0,0,0,-0.0803,-0.0804,-0.085,-0.0851,-0.0852,-0.0909,-0.0909,-0.091,-0.0939,-0.094,-0.094,-0.094,-0.0979,-0.098,-0.0981,0,0,0,0,0,0,0,0,0,0,0,0,0,-0.0837,-0.0804,-0.085,-0.0875,-0.0878,-0.0909,-0.0909,-0.091,-0.0939,-0.094,-0.094,-0.094,-0.0979,-0.098,-0.0982,-0.0983,0,0,-0.0986,-0.0986,0,0,0,0,0,0,0,0,-0.0835,-0.0838,-0.0871,-0.0874,-0.0877,-0.0919,-0.0908,-0.0934,-0.0939,-0.0914,-0.094,-0.094,-0.0959,-0.0962,-0.0969,-0.0985,-0.0986,-0.0986,-0.0986,-0.0987,-0.0987,0,0,0,0,0,0,0,-0.0832,-0.0836,-0.0871,-0.0872,-0.0876,-0.0897,-0.0902,-0.0913,-0.0932,-0.0916,-0.0919,-0.0929,-0.096,-0.0968,-0.097,-0.0987,-0.0986,-0.0987,-0.0987,-0.0988,-0.1046,-0.1047,0,0,0,0,0,0,-0.0827,-0.0833,-0.0869,-0.0873,-0.0859,-0.0898,-0.0903,-0.0903,-0.0932,-0.0938,-0.0929,-0.093,-0.0966,-0.0969,-0.0972,-0.1034,-0.0987,-0.0988,-0.0989,-0.1046,-0.1047,-0.1047,0,0,0,0,0,0,-0.0826,-0.0829,-0.0867,-0.0857,-0.0864,-0.0898,-0.0899,-0.0905,-0.0933,-0.0942,-0.0947,-0.0954,-0.0966,-0.097,-0.1007,-0.1034,-0.0989,-0.099,-0.1045,-0.1046,-0.1047,-0.1121,0,0,0,0,0,0,-0.0824,-0.0828,-0.0824,-0.0856,-0.0864,-0.0907,-0.0899,-0.0906,-0.0939,-0.0942,-0.0965,-0.0968,-0.0967,-0.1005,-0.1008,-0.1035,-0.0991,-0.1044,-0.1045,-0.1047,-0.1117,-0.1124,-0.113,0,0,0,0,0,-0.0822,-0.0821,-0.0823,-0.0828,-0.0858,-0.0908,-0.0915,-0.0939,-0.094,-0.0963,-0.0978,-0.0969,-0.1016,-0.1007,-0.1011,-0.1038,-0.1043,-0.1045,-0.1047,-0.1115,-0.1123,-0.113,0,0,0,0,0,0,-0.0806,-0.0826,-0.0828,-0.0834,-0.0877,-0.0915,-0.0937,-0.0951,-0.0981,-0.0985,-0.0987,-0.0992,-0.1033,-0.1022,-0.1012,-0.1056,-0.1024,-0.1027,-0.1075,-0.1083,-0.1089,-0.108,-0.0992,0,0,0,0,0,-0.0797,-0.08,-0.0836,-0.0847,-0.0869,-0.0905,-0.0926,-0.0948,-0.0979,-0.0994,-0.1011,-0.1022,-0.1038,-0.1051,-0.1063,-0.1092,-0.1082,-0.1107,-0.1113,-0.1119,-0.1113,-0.1128,-0.1136,-0.1053,-0.1053,-0.1053,0,0,-0.0793,-0.0807,-0.0807,-0.0843,-0.0876,-0.092,-0.092,-0.0968,-0.1003,-0.0992,-0.1045,-0.1052,-0.1051,-0.1087,-0.1102,-0.1085,-0.114,-0.1121,-0.1127,-0.1117,-0.1131,-0.1139,-0.1147,-0.1054,-0.1054,-0.1054,0,0,-0.0806,-0.0806,-0.0822,-0.0861,-0.0915,-0.094,-0.096,-0.1013,-0.1036,-0.1087,-0.1082,-0.1112,-0.1138,-0.1147,-0.1151,-0.1198,-0.1176,-0.1194,-0.1223,-0.1239,-0.1246,-0.1252,-0.1264,-0.127,-0.1196,-0.1196,-0.1196,0,-0.08,-0.0824,-0.0841,-0.0883,-0.0918,-0.0954,-0.1001,-0.1032,-0.109,-0.111,-0.1115,-0.116,-0.1168,-0.12,-0.1214,-0.1216,-0.1211,-0.1198,-0.1249,-0.1254,-0.1259,-0.127,-0.1276,-0.12,-0.1199,-0.1199,-0.1198,0,-0.0835,-0.0862,-0.0887,-0.094,-0.0981,-0.1031,-0.108,-0.112,-0.115,-0.1178,-0.1227,-0.1241,-0.1264,-0.1272,-0.1259,-0.1293,-0.1274,-0.126,-0.1232,-0.1272,-0.1281,-0.1286,-0.1205,-0.1204,-0.1202,-0.1202,0,0,-0.0798,-0.0888,-0.0898,-0.0936,-0.1016,-0.1054,-0.1116,-0.1178,-0.121,-0.1262,-0.1299,-0.1337,-0.1339,-0.1341,-0.1333,-0.1341,-0.1383,-0.1311,-0.131,-0.1328,-0.1412,-0.1307,-0.1302,-0.1374,-0.1375,-0.1376,-0.141,0,-0.0823,-0.09,-0.0941,-0.1023,-0.1068,-0.1123,-0.1174,-0.1231,-0.1272,-0.1315,-0.1338,-0.1373,-0.1367,-0.1376,-0.139,-0.1378,-0.1396,-0.1375,-0.1365,-0.1364,-0.127,-0.1304,-0.1379,-0.1413,-0.1414,-0.1415,-0.1416,0,-0.0839,-0.0889,-0.0969,-0.106,-0.1085,-0.1135,-0.1214,-0.1266,-0.1328,-0.1358,-0.1399,-0.1413,-0.1446,-0.1425,-0.1453,-0.1435,-0.1431,-0.1421,-0.1422,-0.1295,-0.1267,-0.1359,-0.1425,-0.1424,-0.1423,-0.1423,-0.1422,0,-0.0797,-0.0905,-0.0966,-0.1002,-0.1109,-0.1149,-0.1202,-0.1275,-0.1312,-0.1379,-0.1401,-0.1453,-0.1469,-0.1481,-0.1468,-0.1468,-0.1471,-0.1478,-0.1385,-0.1378,-0.1432,-0.1425,-0.1498,-0.1498,-0.1498,-0.1498,-0.1498,0,-0.0792,-0.0845,-0.0953,-0.0985,-0.1053,-0.1132,-0.1195,-0.1251,-0.1315,-0.1343,-0.1412,-0.1418,-0.1479,-0.1485,-0.148,-0.1434,-0.1494,-0.1389,-0.1377,-0.1463,-0.1459,-0.1436,-0.1428,-0.1499,-0.1499,-0.1499,-0.1499,0,-0.0742,-0.0816,-0.0887,-0.0998,-0.1035,-0.1079,-0.118,-0.121,-0.1286,-0.1317,-0.1338,-0.1404,-0.142,-0.1454,-0.1469,-0.1435,-0.1411,-0.1379,-0.1463,-0.1456,-0.1314,-0.131,-0.1308,-0.1305,-0.1302,-0.1299,-0.1297,0,-0.0726,-0.0758,-0.0875,-0.0906,-0.0958,-0.1036,-0.1076,-0.1178,-0.1201,-0.128,-0.1271,-0.1324,-0.1356,-0.1304,-0.1347,-0.1354,-0.1333,-0.1326,-0.1329,-0.1304,-0.1294,-0.1295,-0.1294,-0.1292,-0.1292,-0.1291,-0.129,0,-0.0686,-0.073,-0.0784,-0.084,-0.0891,-0.0946,-0.1007,-0.1018,-0.1114,-0.1194,-0.119,-0.1206,-0.1214,-0.1241,-0.1244,-0.124,-0.1337,-0.1295,-0.1303,-0.1305,-0.1285,-0.1278,-0.1281,-0.128,-0.1281,-0.1282,-0.1283,0,-0.0649,-0.0669,-0.0726,-0.0774,-0.0818,-0.0826,-0.0883,-0.0917,-0.0963,-0.1066,-0.1052,-0.1111,-0.1187,-0.1177,-0.1168,-0.1168,-0.1174,-0.1152,-0.1167,-0.1179,-0.1119,-0.1073,-0.0991,0,0,0,0,0,-0.0611,-0.0623,-0.0652,-0.0687,-0.0715,-0.0741,-0.0819,-0.0874,-0.097,-0.0944,-0.1005,-0.1012,-0.1028,-0.1056,-0.1036,-0.1108,-0.1168,-0.1078,-0.1148,-0.1223,-0.1235,-0.1174,0,0,0,0,0,0,-0.0585,-0.0612,-0.0628,-0.0593,-0.0588,-0.061,-0.0654,-0.0723,-0.0728,-0.0835,-0.0853,-0.0942,-0.0975,-0.102,-0.1007,-0.1019,-0.1043,-0.113,-0.1127,-0.1216,-0.1227,-0.1236,-0.1178,0,0,0,0,0]},{"header":{"parameterUnit":"m.s-1","parameterCategory":2,"la1":30.2991,"la2":30.254,"lo1":-89.0895,"lo2":-89.0444,"dy":0.0017,"dx":0.0017,"nx":28,"ny":28,"refTime":"2025-03-28T09:00:00:Z","depth":"4","parameterNumber":3,"parameterNumberName":"V-component_of_CURRENTS"},"data":[0,0,0,0,0,0,0,0,0,0,0,0,0,0,0,0,0,0,0,0,0,0,0,0,0,0,0,0,0,0,0,0,0,0,0,0,0,0,0,0,0,0,0,0,0,0,0,0,0,0,0,0,0,0,0,0,0,0,-0.0315,-0.0315,0,-0.0274,-0.0273,-0.0273,-0.0289,-0.029,-0.0292,-0.0293,-0.0264,-0.0263,-0.0261,0,0,0,0,0,0,0,0,0,0,0,0,0,-0.0299,-0.03,-0.0315,-0.0315,-0.0314,-0.0274,-0.0273,-0.0273,-0.0289,-0.029,-0.0292,-0.0293,-0.0265,-0.0263,-0.0261,0,0,0,0,0,0,0,0,0,0,0,0,0,-0.0286,-0.03,-0.0315,-0.0319,-0.0319,-0.0274,-0.0273,-0.0272,-0.0289,-0.029,-0.0292,-0.0294,-0.0266,-0.0263,-0.0261,-0.0212,0,0,-0.0252,-0.0251,0,0,0,0,0,0,0,0,-0.0286,-0.0286,-0.0318,-0.0318,-0.0318,-0.0289,-0.0257,-0.0253,-0.0288,-0.0299,-0.0293,-0.0294,-0.0274,-0.027,-0.0257,-0.021,-0.0209,-0.0252,-0.0251,-0.0249,-0.0249,0,0,0,0,0,0,0,-0.0288,-0.0287,-0.0298,-0.0318,-0.0318,-0.0285,-0.0286,-0.0256,-0.0277,-0.0298,-0.0299,-0.0296,-0.0274,-0.026,-0.0257,-0.0209,-0.0252,-0.025,-0.0248,-0.0247,-0.0126,-0.0125,0,0,0,0,0,0,-0.0299,-0.0289,-0.0299,-0.0296,-0.0307,-0.0284,-0.0285,-0.0296,-0.0277,-0.0276,-0.0295,-0.0297,-0.0263,-0.026,-0.0256,-0.0224,-0.0249,-0.0247,-0.0245,-0.0128,-0.0126,-0.0124,0,0,0,0,0,0,-0.0299,-0.0301,-0.0301,-0.0291,-0.029,-0.0284,-0.0295,-0.0294,-0.029,-0.0275,-0.0274,-0.0293,-0.0264,-0.0259,-0.0226,-0.0223,-0.0246,-0.0243,-0.013,-0.0127,-0.0125,-0.0144,0,0,0,0,0,0,-0.0299,-0.0301,-0.0312,-0.0293,-0.0291,-0.0278,-0.0294,-0.0292,-0.0286,-0.0289,-0.0272,-0.0271,-0.0265,-0.023,-0.0223,-0.0219,-0.0241,-0.0132,-0.0129,-0.0126,-0.0145,-0.0142,-0.0139,0,0,0,0,0,-0.0299,-0.0308,-0.0313,-0.0314,-0.0306,-0.0277,-0.0272,-0.0272,-0.0284,-0.0276,-0.0261,-0.0272,-0.0206,-0.0226,-0.0219,-0.0214,-0.0133,-0.013,-0.0126,-0.0146,-0.0143,-0.014,0,0,0,0,0,0,-0.031,-0.031,-0.0315,-0.0326,-0.0305,-0.0281,-0.0275,-0.0271,-0.0251,-0.0257,-0.0248,-0.0244,-0.0215,-0.0199,-0.0221,-0.0166,-0.0172,-0.0167,-0.019,-0.0186,-0.0183,-0.0208,-0.0239,0,0,0,0,0,-0.0316,-0.0324,-0.0309,-0.0316,-0.0308,-0.029,-0.028,-0.0275,-0.0255,-0.025,-0.0235,-0.0214,-0.0189,-0.0178,-0.0151,-0.0116,-0.0111,-0.0105,-0.0103,-0.0101,-0.0113,-0.0099,-0.0097,-0.0112,-0.0112,-0.0112,0,0,-0.0323,-0.0323,-0.0329,-0.0318,-0.0305,-0.0288,-0.0288,-0.0271,-0.026,-0.0247,-0.0226,-0.0203,-0.0175,-0.0143,-0.0128,-0.0134,-0.0088,-0.0096,-0.0095,-0.0108,-0.0095,-0.0094,-0.0093,-0.011,-0.011,-0.011,0,0,-0.0328,-0.034,-0.0341,-0.0323,-0.0303,-0.0288,-0.0284,-0.0257,-0.025,-0.0215,-0.0208,-0.0184,-0.0137,-0.0124,-0.011,-0.0069,-0.0073,-0.0055,-0.0066,-0.0052,-0.0052,-0.0052,-0.0028,-0.0026,-0.0055,-0.0055,-0.0055,0,-0.0336,-0.0343,-0.0332,-0.032,-0.0314,-0.0291,-0.0282,-0.0259,-0.0223,-0.022,-0.0213,-0.0157,-0.0132,-0.0108,-0.0092,-0.0068,-0.0057,-0.0088,-0.0053,-0.0053,-0.0052,-0.0028,-0.0025,-0.0056,-0.0056,-0.0056,-0.0056,0,-0.0333,-0.0338,-0.0334,-0.0321,-0.0306,-0.0293,-0.0266,-0.0249,-0.0237,-0.0219,-0.0191,-0.0151,-0.0127,-0.0105,-0.0086,-0.0066,-0.0057,-0.0055,-0.0073,-0.0053,-0.0027,-0.0024,-0.0056,-0.0056,-0.0056,-0.0056,0,0,-0.0352,-0.0339,-0.0338,-0.0342,-0.031,-0.0303,-0.0279,-0.0259,-0.0266,-0.0217,-0.0221,-0.0159,-0.0149,-0.0131,-0.0103,-0.0084,-0.0058,-0.0068,-0.0067,-0.0066,-0.0021,-0.003,-0.0028,-0.0055,-0.0055,-0.0055,0.0001,0,-0.0355,-0.0352,-0.0339,-0.0337,-0.0335,-0.0315,-0.0304,-0.0283,-0.0265,-0.0256,-0.0214,-0.0199,-0.0154,-0.015,-0.012,-0.0079,-0.0053,-0.0073,-0.0022,-0.0021,-0.0051,-0.0026,-0.0054,0.0003,0.0004,0.0004,0.0005,0,-0.0354,-0.0355,-0.0359,-0.0368,-0.0368,-0.0362,-0.0366,-0.0351,-0.0326,-0.0315,-0.0287,-0.0259,-0.0213,-0.0187,-0.0106,-0.0121,-0.0071,-0.0036,-0.0033,-0.0041,-0.0026,-0.0022,0.001,0.001,0.0009,0.0009,0.0008,0,-0.0377,-0.0374,-0.0389,-0.0386,-0.0381,-0.0389,-0.0388,-0.0372,-0.038,-0.0355,-0.0364,-0.0303,-0.0287,-0.0212,-0.0125,-0.0116,-0.0047,-0.0027,0.0014,0.0014,0.0011,0.001,0.0022,0.0022,0.0022,0.0022,0.0021,0,-0.0385,-0.0399,-0.0406,-0.0411,-0.0443,-0.0425,-0.0456,-0.0445,-0.0444,-0.0461,-0.04,-0.0405,-0.0296,-0.024,-0.0147,-0.006,-0.006,0.0011,0.0024,0.0008,0.0006,0.0014,0.0013,0.0024,0.0023,0.0023,0.0022,0,-0.0403,-0.0406,-0.0427,-0.0439,-0.0453,-0.0473,-0.0505,-0.0527,-0.0515,-0.0538,-0.0534,-0.0483,-0.0403,-0.0291,-0.0178,-0.0104,-0.0012,0.0017,-0.0007,0.0005,0.0051,0.0049,0.0077,0.0077,0.0077,0.0077,0.0077,0,-0.0412,-0.0421,-0.0457,-0.0483,-0.0492,-0.0526,-0.0557,-0.0561,-0.0583,-0.0587,-0.0601,-0.0543,-0.049,-0.0334,-0.0214,-0.004,-0.0016,0.0032,0.0049,0.0045,0.0055,0.0052,0.005,0.0077,0.0077,0.0077,0.0077,0,-0.0425,-0.044,-0.0459,-0.0513,-0.0553,-0.0604,-0.0642,-0.0666,-0.0671,-0.067,-0.0653,-0.057,-0.0488,-0.0346,-0.0221,-0.0096,0.0003,0.0033,0.0035,0.0051,0.0045,0.0055,0.0052,0.0078,0.0078,0.0078,0.0078,0,-0.0437,-0.0458,-0.0489,-0.0535,-0.0596,-0.0657,-0.0678,-0.07,-0.0717,-0.0707,-0.0707,-0.0605,-0.0547,-0.0377,-0.0262,-0.014,-0.0097,-0.0053,-0.0046,-0.0045,-0.0095,-0.0122,-0.0133,0,0,0,0,0,-0.0442,-0.0466,-0.0512,-0.0564,-0.063,-0.0666,-0.0726,-0.074,-0.0749,-0.074,-0.0717,-0.0632,-0.0466,-0.0403,-0.0279,-0.0253,-0.0077,-0.0106,-0.0022,0.0078,0.0078,0.0038,0,0,0,0,0,0,-0.0445,-0.0485,-0.0506,-0.0581,-0.0625,-0.0699,-0.0738,-0.0752,-0.0738,-0.0731,-0.0641,-0.0598,-0.0433,-0.0526,-0.0273,-0.0239,-0.017,-0.0026,-0.0024,0.0078,0.0078,0.0078,0.0037,0,0,0,0,0]}]]